This demonstration page uses our WeatherBlox Daily Observations layout. Learn more.

Left ArrowRight Arrow

Hourly Observations for November 28, 2019

Temp ( °F °C ) Dew Point ( °F °C ) Humidity (%) Winds ( mph kmh ) Pressure ( in mb ) Visibility ( mi km ) Precip ( " mm )
12:56 am 00:56 Clear 16 -8.9 14 -10 92 92 ENE 6 9 30.45 1031 10 16 0.00 0.00
1:56 am 01:56 Partly Cloudy 18 -7.8 16 -8.9 92 92 E 5 7 30.45 1031 10 16 0.00 0.00
2:56 am 02:56 Cloudy 21 -6.1 18 -7.8 88 88 ESE 6 9 30.45 1031 10 16 0.00 0.00
3:56 am 03:56 Cloudy 23 -5 20 -6.7 88 88 SE 13 20 30.44 1031 10 16 0.00 0.00
4:56 am 04:56 Cloudy 24 -4.4 20 -6.7 84 84 ESE 12 19 30.43 1031 10 16 0.00 0.00
5:56 am 05:56 Cloudy 24 -4.4 21 -6.1 88 88 ESE 15 24 30.43 1030 10 16 0.00 0.00
6:56 am 06:56 Cloudy with Light Snow 24 -4.4 21 -6.1 88 88 SE 14 22 30.43 1030 9 14 0.00 0.00
7:11 am 07:11 Cloudy with Light Snow 25 -4 21 -6 86 86 SE 15 24 30.47 1032 3 5 0.00 0.00
7:18 am 07:18 Cloudy with Light Snow 25 -4 21 -6 86 86 SE 15 24 30.47 1032 2 3 0.00 0.00
7:42 am 07:42 Cloudy with Light Snow 25 -4 21 -6 86 86 SE 15 24 30.47 1032 2 2 0.00 0.00
7:56 am 07:56 Cloudy with Light Snow 24 -4.4 22 -5.6 91 91 SE 14 22 30.43 1031 2 2 0.00 0.00
8:56 am 08:56 Cloudy with Light Snow 25 -3.9 23 -5 92 92 SE 14 22 30.43 1030 2 2 0.01 0.25
9:09 am 09:09 Cloudy with Light Snow 25 -4 25 -4 100 100 SE 15 24 30.45 1031 2 3 0.00 0.00
9:27 am 09:27 Cloudy with Light Snow 27 -3 25 -4 93 93 SE 16 26 30.43 1030 2 3 0.01 0.25
9:49 am 09:49 Cloudy with Light Snow 27 -3 25 -4 93 93 SE 16 26 30.43 1030 3 5 0.01 0.25
9:56 am 09:56 Cloudy with Light Snow 26 -3.3 24 -4.4 92 92 SE 15 24 30.39 1029 5 8 0.01 0.25
10:05 am 10:05 Cloudy with Light Snow 27 -3 25 -4 93 93 SE 15 24 30.42 1030 7 11 0.00 0.00
10:56 am 10:56 Cloudy with Light Wintry Mix 28 -2.2 25 -3.9 88 88 SE 16 26 30.39 1029 10 16 0.00 0.00
11:56 am 11:56 Cloudy with Light Wintry Mix 29 -1.7 26 -3.3 89 89 SE 15 24 30.36 1028 6 10 0.00 0.00
12:56 pm 12:56 Cloudy with Light Wintry Mix 29 -1.7 26 -3.3 89 89 SE 17 28 30.34 1027 9 14 0.00 0.00
1:56 pm 13:56 Cloudy 29 -1.7 27 -2.8 92 92 SE 13 20 30.31 1027 9 14 0.00 0.00
2:56 pm 14:56 Cloudy with Light Snow 29 -1.7 27 -2.8 92 92 SE 15 24 30.31 1026 7 11 0.00 0.00
3:43 pm 15:43 Cloudy 28 -2 28 -2 100 100 SE 17 28 30.32 1027 7 11 0.00 0.00
3:56 pm 15:56 Cloudy 29 -1.7 27 -2.8 92 92 SE 17 28 30.28 1025 8 13 0.00 0.00
4:56 pm 16:56 Cloudy 29 -1.7 28 -2.2 96 96 SE 20 31 30.24 1024 8 13 0.00 0.00
5:56 pm 17:56 Cloudy 29 -1.7 28 -2.2 96 96 SSE 18 30 30.26 1025 10 16 0.00 0.00
6:56 pm 18:56 Cloudy 29 -1.7 28 -2.2 96 96 SE 15 24 30.27 1025 10 16 0.00 0.00
7:40 pm 19:40 Cloudy N/A N/A N/A SE 16 26 N/A 10 16 0.00 0.00
7:56 pm 19:56 Cloudy N/A N/A N/A SSE 17 28 N/A 10 16 0.00 0.00
8:56 pm 20:56 Cloudy 29 -1.7 28 -2.2 96 96 SE 15 24 30.25 1024 9 14 0.00 0.00
9:56 pm 21:56 Cloudy with Light Snow 29 -1.7 28 -2.2 96 96 SSE 14 22 30.24 1024 8 13 0.00 0.00
10:56 pm 22:56 Cloudy 29 -1.7 29 -1.7 100 100 SSE 15 24 30.23 1024 10 16 0.00 0.00
11:56 pm 23:56 Cloudy 30 -1.1 29 -1.7 96 96 SSE 16 26 30.23 1024 10 16 0.00 0.00

Powered by AerisWeather